Showing default

QIANFAN-163, 69325

Orbit data source: Space-Track

QIANFAN-163, 69325 is a Chinese payload satellite in LEO that was launched on Mon, 01 Jun 2026 UTC via a CHANG ZHENG 12B launch vehicle from the Jiuquan Satellite Launch Center, China (JSC). Payload-class satellites include a variety of spacecraft equipped with specific instruments for various scientific and technological missions. These include communications satellites like Starlink; space stations such as the ISS; scientific satellites like the Hubble; Earth observation satellites from companies like Planet Labs, Umbra, and HawkEye 360; GPS; miniature CubeSats for education and research; and military/defense satellites.

Loading next visibility...
Identifier
69325, 2026-121A
Orbit
LEO
Country
Flag of CNCN / PRC
Related business
Manufacturer
GESIH
Mission
Operational spacecraft
Bus & Motor
QIANFAN, Unknown motor
Mass
267 kg wet, ~267 kg dry
Launch date (UTC)
2026-06-01 (1 week ago)
Launch vehicle
CHANG ZHENG 12B
Launch site
Jiuquan Satellite Launch Center, China (JSC)
Object type
Payload
Rocket body
Debris
Shape & HBR
Unknown
Radar Cross Section
Large (>1 m²)

Expand to show TLE details & history
Last TLE update: 6 days ago

TLE from 6 days ago
0 QIANFAN-163
1 69325U 26121A   26154.98440444  .00000017  00000-0  67682-5 0  9994
2 69325  89.0161 301.8508 0018824 226.7301 133.2285 13.60350498   363
Epoch: 2026-06-03T23:37Z
TLE epoch observation values (Epoch: 2026-06-03T23:37:32.543Z)
Latitude
-0.00009°
Longitude
55.03002°
Altitude
1,046.958 km
Speed
7.324 km/s
True Right ascension
20h 07m 24s
True Declination
0° 00' 00"
Sunlit
Object was in full shadow at epoch
Visualization orbit readout
Latitude
Unknown
Longitude
Unknown
Altitude
Unknown
Speed
Unknown
Apparent Right ascension
Unknown
Apparent Declination
Unknown
Sunlit
N/A
Visualization observer readout
Local Sidereal Time
14:07:38
Azimuth
Unknown
Elevation
Unknown
Doppler factor
Unknown
Orbital elements
Apogee altitude
1,045.404 km
Perigee altitude
1,017.508 km
Semi-major axis
7,409.593 km
Eccentricity
0.00188
Inclination
89.0161°
RAAN
301.8508°
Arg. of periapsis
226.7301°
True anomaly
133.38542°
Mean anomaly
133.2285°
Eccentric anomaly
133.30698°
Mean motion
3.40292 °/min
Orbital period
105.79 mins
BSTAR
0.0000067682
Loading maneuver chart data...
Computing Atmospheric mass density...
Loading historical data...
Loading historical data...
Loading historical data...
Loading historical data...
Loading historical data...
Loading historical data...
Loading historical data...
Other satellites on launch #121 in the year 2026 (2026-06-01 UTC)

Documentation

Showing up to 5 results
|